Tracking 19792 objects as of 16-Jul-2019
HD Live streaming from Space Station
objects crossing your sky now

SL-8 R/B

Track SL-8 R/B now!
10-day predictions


NORAD ID: 13128
Int'l Code: 1982-030B
Perigee: 963.9 km
Apogee: 1,008.4 km
Inclination: 82.9 °
Period: 104.7 minutes
Semi major axis: 7357 km
RCS: 4.5308 m2 (large)
Launch date: April 8, 1982
Source: Commonwealth of Independent States (former USSR) (CIS)
Launch site: PLESETSK MISSILE AND SPACE COMPLEX (PKMTR)

Note: This is a ROCKET BODY
aabbcc
Your satellite tracking list
Your tracking list is empty




NASA's NSSDC Master Catalog

Two Line Element Set (TLE):
1 13128U 82030B   19196.94815883 -.00000085 +00000-0 -10356-3 0  9993
2 13128 082.9243 198.9273 0030238 102.4653 318.9940 13.75755614869765
Source of the keplerian elements: AFSPC